When you browse on this site, cookies collect data to enhance your experience and personalize the content and advertising you see.
Visit our Privacy Policy to learn more. By continuing to use the site, you agree to this use of cookies and data.
  • In United Kingdom
  • List of Countries
  • For 7 days
  • Water Temperature
  • Weather Map
  • Weather Widgets
  • user-avatar
    Login

    Hourly Weather Omagh

    Today, 9 April, Thursday

    Time Temperature Precipitation Wind Pressure Humidity
    00:00 +8°C° 0 mm 0 mps 761 mmHg 96%
    01:00 +8°C° 0 mm 0 mps 761 mmHg 96%
    02:00 +8°C° 0 mm 0 mps 761 mmHg 96%
    03:00 +7°C° 0 mm 0 mps 761 mmHg 97%
    04:00 +7°C° 0 mm 0 mps 761 mmHg 97%
    05:00 +8°C° 0 mm 1 mps 761 mmHg 97%
    06:00 +8°C° 0 mm 1 mps 761 mmHg 97%
    07:00 +9°C° 0 mm 1 mps 761 mmHg 93%
    08:00 +11°C° 0 mm 1 mps 761 mmHg 89%
    09:00 +12°C° 0 mm 1 mps 761 mmHg 86%
    10:00 +13°C° 0 mm 2 mps 761 mmHg 81%
    11:00 +13°C° 0 mm 3 mps 761 mmHg 76%
    12:00 +16°C° 0 mm 3 mps 761 mmHg 71%
    13:00 +16°C° 0 mm 3 mps 761 mmHg 71%
    14:00 +16°C° 0 mm 3 mps 761 mmHg 70%
    15:00 +17°C° 0 mm 3 mps 760 mmHg 70%
    16:00 +16°C° 0 mm 3 mps 760 mmHg 74%
    17:00 +14°C° 0 mm 3 mps 760 mmHg 78%
    18:00 +14°C° 0 mm 3 mps 760 mmHg 82%
    19:00 +13°C° 0 mm 2 mps 760 mmHg 87%
    20:00 +12°C° 0 mm 2 mps 760 mmHg 91%
    21:00 +9°C° 0 mm 2 mps 760 mmHg 96%
    22:00 +10°C° 0 mm 1 mps 760 mmHg 96%
    23:00 +10°C° 0 mm 1 mps 760 mmHg 96%

    Tomorrow, 10 April, Friday

    Time Temperature Precipitation Wind Pressure Humidity
    00:00 +9°C° 0 mm 1 mps 760 mmHg 96%
    01:00 +9°C° 0 mm 1 mps 760 mmHg 96%
    02:00 +9°C° 0 mm 1 mps 760 mmHg 96%
    03:00 +9°C° 0 mm 1 mps 759 mmHg 96%
    04:00 +9°C° 0 mm 1 mps 759 mmHg 96%
    05:00 +9°C° 0 mm 1 mps 759 mmHg 96%
    06:00 +9°C° 0 mm 1 mps 759 mmHg 96%
    07:00 +11°C° 0 mm 1 mps 759 mmHg 91%
    08:00 +12°C° 0 mm 1 mps 759 mmHg 86%
    09:00 +14°C° 0 mm 1 mps 760 mmHg 81%
    10:00 +15°C° 0 mm 1 mps 759 mmHg 79%
    11:00 +16°C° 0 mm 2 mps 759 mmHg 77%
    12:00 +17°C° 0 mm 2 mps 759 mmHg 75%
    13:00 +17°C° 0.4 mm 2 mps 759 mmHg 78%
    14:00 +17°C° 0.4 mm 2 mps 759 mmHg 80%
    15:00 +18°C° 0.4 mm 2 mps 758 mmHg 82%
    16:00 +17°C° 0.7 mm 2 mps 758 mmHg 85%
    17:00 +16°C° 0.7 mm 2 mps 758 mmHg 88%
    18:00 +16°C° 0.7 mm 1 mps 758 mmHg 91%
    19:00 +15°C° 0.1 mm 1 mps 758 mmHg 93%
    20:00 +13°C° 0.1 mm 1 mps 758 mmHg 94%
    21:00 +12°C° 0.1 mm 1 mps 758 mmHg 96%
    22:00 +12°C° 0 mm 1 mps 758 mmHg 96%
    23:00 +11°C° 0 mm 1 mps 758 mmHg 96%

    Day after tomorrow, 11 April, Saturday

    Time Temperature Precipitation Wind Pressure Humidity
    00:00 +11°C° 0 mm 1 mps 758 mmHg 97%
    01:00 +10°C° 0 mm 1 mps 758 mmHg 97%
    02:00 +9°C° 0 mm 2 mps 758 mmHg 96%
    03:00 +9°C° 0 mm 2 mps 758 mmHg 96%
    04:00 +9°C° 0 mm 2 mps 758 mmHg 96%
    05:00 +9°C° 0 mm 2 mps 758 mmHg 97%
    06:00 +9°C° 0 mm 3 mps 758 mmHg 97%
    07:00 +10°C° 0 mm 3 mps 759 mmHg 94%
    08:00 +10°C° 0 mm 3 mps 759 mmHg 91%
    09:00 +10°C° 0 mm 4 mps 759 mmHg 88%
    10:00 +11°C° 0 mm 4 mps 759 mmHg 80%
    11:00 +12°C° 0 mm 3 mps 759 mmHg 72%
    12:00 +13°C° 0 mm 3 mps 759 mmHg 64%
    13:00 +14°C° 0 mm 3 mps 759 mmHg 63%
    14:00 +14°C° 0 mm 3 mps 759 mmHg 62%
    15:00 +16°C° 0 mm 3 mps 758 mmHg 62%
    16:00 +14°C° 0 mm 3 mps 758 mmHg 68%
    17:00 +14°C° 0 mm 2 mps 758 mmHg 73%
    18:00 +13°C° 0 mm 2 mps 757 mmHg 79%
    19:00 +13°C° 0 mm 2 mps 757 mmHg 82%
    20:00 +12°C° 0 mm 1 mps 757 mmHg 86%
    21:00 +11°C° 0 mm 1 mps 757 mmHg 89%
    22:00 +10°C° 0 mm 1 mps 756 mmHg 91%
    23:00 +10°C° 0 mm 1 mps 756 mmHg 94%

    12 April, Sunday

    Time Temperature Precipitation Wind Pressure Humidity
    00:00 +9°C° 0 mm 1 mps 755 mmHg 96%
    01:00 +9°C° 0.1 mm 1 mps 755 mmHg 96%
    02:00 +9°C° 0.1 mm 1 mps 754 mmHg 96%
    03:00 +10°C° 0.1 mm 1 mps 753 mmHg 96%
    04:00 +9°C° 0.3 mm 1 mps 753 mmHg 96%
    05:00 +9°C° 0.3 mm 1 mps 753 mmHg 96%
    06:00 +7°C° 0.3 mm 2 mps 752 mmHg 96%
    07:00 +8°C° 1.2 mm 2 mps 752 mmHg 96%
    08:00 +8°C° 1.2 mm 3 mps 752 mmHg 95%
    09:00 +8°C° 1.2 mm 3 mps 752 mmHg 94%
    10:00 +7°C° 0.9 mm 4 mps 753 mmHg 91%
    11:00 +8°C° 0.9 mm 4 mps 753 mmHg 89%
    12:00 +8°C° 0.9 mm 4 mps 753 mmHg 86%
    13:00 +9°C° 0.2 mm 5 mps 753 mmHg 82%
    14:00 +9°C° 0.2 mm 5 mps 753 mmHg 78%
    15:00 +10°C° 0.2 mm 5 mps 753 mmHg 74%
    16:00 +9°C° 0 mm 5 mps 753 mmHg 74%
    17:00 +8°C° 0 mm 5 mps 754 mmHg 74%
    18:00 +8°C° 0 mm 5 mps 754 mmHg 74%
    19:00 +7°C° 0 mm 4 mps 754 mmHg 77%
    20:00 +6°C° 0 mm 4 mps 755 mmHg 81%
    21:00 +5°C° 0 mm 3 mps 755 mmHg 85%
    22:00 +5°C° 0 mm 3 mps 756 mmHg 87%
    23:00 +5°C° 0 mm 3 mps 756 mmHg 89%

    13 April, Monday

    Time Temperature Precipitation Wind Pressure Humidity
    00:00 +5°C° 0 mm 3 mps 757 mmHg 90%
    01:00 +5°C° 0 mm 3 mps 757 mmHg 89%
    02:00 +6°C° 0 mm 4 mps 758 mmHg 87%
    03:00 +6°C° 0 mm 4 mps 758 mmHg 85%
    04:00 +5°C° 0 mm 4 mps 759 mmHg 85%
    05:00 +4°C° 0 mm 3 mps 760 mmHg 84%
    06:00 +4°C° 0 mm 3 mps 760 mmHg 84%
    07:00 +5°C° 0 mm 4 mps 761 mmHg 80%
    08:00 +6°C° 0 mm 4 mps 762 mmHg 77%
    09:00 +8°C° 0 mm 5 mps 762 mmHg 73%
    10:00 +8°C° 0 mm 5 mps 763 mmHg 72%
    11:00 +8°C° 0 mm 5 mps 763 mmHg 70%
    12:00 +8°C° 0 mm 5 mps 763 mmHg 69%
    13:00 +9°C° 0 mm 5 mps 764 mmHg 66%
    14:00 +10°C° 0 mm 4 mps 764 mmHg 64%
    15:00 +11°C° 0 mm 4 mps 764 mmHg 61%
    16:00 +10°C° 0 mm 4 mps 764 mmHg 64%
    17:00 +10°C° 0 mm 4 mps 764 mmHg 67%
    18:00 +9°C° 0 mm 3 mps 764 mmHg 70%
    19:00 +7°C° 0 mm 3 mps 764 mmHg 76%
    20:00 +5°C° 0 mm 2 mps 764 mmHg 83%
    21:00 +3°C° 0 mm 2 mps 764 mmHg 89%
    22:00 +3°C° 0 mm 2 mps 764 mmHg 90%
    23:00 +2°C° 0 mm 2 mps 764 mmHg 90%

    14 April, Tuesday

    Time Temperature Precipitation Wind Pressure Humidity
    00:00 +2°C° 0 mm 2 mps 764 mmHg 91%
    01:00 +2°C° 0 mm 2 mps 764 mmHg 93%
    02:00 +1°C° 0 mm 2 mps 763 mmHg 94%
    03:00 +2°C° 0 mm 1 mps 763 mmHg 95%
    04:00 +2°C° 0 mm 1 mps 762 mmHg 95%
    05:00 +2°C° 0 mm 1 mps 762 mmHg 96%
    06:00 +2°C° 0 mm 1 mps 762 mmHg 96%
    07:00 +3°C° 0 mm 2 mps 762 mmHg 89%
    08:00 +4°C° 0 mm 2 mps 761 mmHg 82%
    09:00 +5°C° 0 mm 3 mps 761 mmHg 76%
    10:00 +8°C° 0 mm 3 mps 761 mmHg 72%
    11:00 +9°C° 0 mm 3 mps 760 mmHg 69%
    12:00 +10°C° 0 mm 3 mps 760 mmHg 65%
    13:00 +11°C° 0 mm 3 mps 760 mmHg 65%
    14:00 +11°C° 0 mm 3 mps 759 mmHg 65%
    15:00 +12°C° 0 mm 4 mps 759 mmHg 64%
    16:00 +11°C° 0 mm 3 mps 758 mmHg 67%
    17:00 +10°C° 0 mm 3 mps 758 mmHg 70%
    18:00 +9°C° 0 mm 3 mps 757 mmHg 73%
    19:00 +7°C° 0 mm 2 mps 757 mmHg 78%
    20:00 +6°C° 0 mm 2 mps 757 mmHg 84%
    21:00 +5°C° 0 mm 1 mps 757 mmHg 90%
    22:00 +4°C° 0 mm 1 mps 757 mmHg 90%
    23:00 +4°C° 0 mm 1 mps 757 mmHg 91%
    Show more